Muenster, Germany

11:56 AM CEST on October 22, 2014 (GMT +0200)
Munster-Osnabruck | Change Station
CLOSE
Current Station
Airport
Location: Muenster,
Elevation: 157 ft
Nearby Weather Stations

Elev 157 ft 52.13 °N, 7.70 °E | Updated 6 minutes ago

Mostly Cloudy
Mostly Cloudy
50 °F
Feels Like 50 °F
N
15
Wind Variable Wind from WNW
Gusts 26 mph

Today
High -- | Low -- °F
--% Chance of Precip.
Yesterday
High -- | Low -- °F
Precip. -- in
8:06 AM 6:20 PM
Waning Crescent, 2% visible
Pressure 29.92 in
Visibility 6.2 miles
Clouds Few 2300 ft
Scattered Clouds 4000 ft
Mostly Cloudy 8000 ft
Dew Point 43 °F
Humidity 76%
Rainfall 0.00 in
Snow Depth Not available.
UV 1 out of 12
Pollen Not available.
Air Quality Not available.
Flu Activity Not available.
METAR EDDG 220950Z 29013G23KT 9999 FEW023 SCT040 BKN080 10/06 Q1013 NOSIG

More Conditions Fewer Conditions

Pressure 29.92 in
Visibility 6.2 miles
Clouds Few 2300 ft
Scattered Clouds 4000 ft
Mostly Cloudy 8000 ft
Dew Point 43 °F
Humidity 76%
Rainfall 0.00 in
Snow Depth Not available.
UV 1 out of 12
Pollen Not available.
Air Quality Not available.
Flu Activity Not available.
METAR EDDG 220950Z 29013G23KT 9999 FEW023 SCT040 BKN080 10/06 Q1013 NOSIG

More Conditions Fewer Conditions

10-Day Weather Forecast

Almanac

Astronomy

Oct. 22, 2014 Rise Set
Actual Time 8:06 AM CEST 6:20 PM CEST
Civil Twilight 7:31 AM CEST 6:55 PM CEST
Nautical Twilight 6:51 AM CEST 7:34 PM CEST
Astronomical Twilight 6:12 AM CEST 8:13 PM CEST
Moon 6:20 AM CEST 5:46 PM CEST
Length of Visible Light 11h 23m
Length of Day
10h 14m
Tomorrow will be 3m 50s shorter.
Waning Crescent, 2% of the Moon is Illuminated
Today
Waning Crescent
Oct 23
New
Oct 30
First Quarter
Nov 6
Full
Nov 14
Last Quarter

Yesterday's Extremes

Country Highs Country Lows

Community

WunderPhotos

Upload Photos

1,763,900 photos uploaded!

Nearby

Snow Depth

Not available.

Earthquake Activity

City Distance Mag. Time & Date
No recent earthquake activity has been reported nearby.
Minimum magnitude displayed is 2.5.

Coastal Water Temperatures

Place Temperature
No Stations Reporting

Nearby Weather Stations